owner,sensor,date,latitude,longitude,vertical_datum,mass_concentration_of_oxygen_in_sea_water,qcFlag 
SCCF RECON,ioos:station:SCCF:18:1,2016-12-01T00:00:00Z,26.6955,-81.8138,1.552,7.41,1111122 
SCCF RECON,ioos:station:SCCF:18:1,2016-12-01T01:00:00Z,26.6955,-81.8138,1.497,7.34,1111122 
SCCF RECON,ioos:station:SCCF:18:1,2016-12-01T02:00:00Z,26.6955,-81.8138,1.432,7.42,1111122 
SCCF RECON,ioos:station:SCCF:18:1,2016-12-01T03:00:00Z,26.6955,-81.8138,1.405,7.28,1111122 
SCCF RECON,ioos:station:SCCF:18:1,2016-12-01T04:00:00Z,26.6955,-81.8138,1.413,6.73,1111122 
SCCF RECON,ioos:station:SCCF:18:1,2016-12-01T05:00:00Z,26.6955,-81.8138,1.492,6.86,1111122 
SCCF RECON,ioos:station:SCCF:18:1,2016-12-01T06:00:00Z,26.6955,-81.8138,1.581,6.7,1111122 
SCCF RECON,ioos:station:SCCF:18:1,2016-12-01T07:00:00Z,26.6955,-81.8138,1.641,6.51,1111122 
SCCF RECON,ioos:station:SCCF:18:1,2016-12-01T08:00:00Z,26.6955,-81.8138,1.677,6.55,1111122 
SCCF RECON,ioos:station:SCCF:18:1,2016-12-01T09:00:00Z,26.6955,-81.8138,1.702,6.49,1111122 
SCCF RECON,ioos:station:SCCF:18:1,2016-12-01T10:00:00Z,26.6955,-81.8138,1.654,6.5,1111122 
SCCF RECON,ioos:station:SCCF:18:1,2016-12-01T11:00:00Z,26.6955,-81.8138,1.559,6.43,1111122 
SCCF RECON,ioos:station:SCCF:18:1,2016-12-01T12:00:00Z,26.6955,-81.8138,1.487,6.36,1111122 
SCCF RECON,ioos:station:SCCF:18:1,2016-12-01T13:00:00Z,26.6955,-81.8138,1.442,6.31,1111122 
SCCF RECON,ioos:station:SCCF:18:1,2016-12-01T14:00:00Z,26.6955,-81.8138,1.393,6.21,1111122 
SCCF RECON,ioos:station:SCCF:18:1,2016-12-01T15:00:00Z,26.6955,-81.8138,1.323,6.22,1111122 
SCCF RECON,ioos:station:SCCF:18:1,2016-12-01T16:00:00Z,26.6955,-81.8138,1.261,6.32,1111122 
SCCF RECON,ioos:station:SCCF:18:1,2016-12-01T17:00:00Z,26.6955,-81.8138,1.225,6.28,1111122 
SCCF RECON,ioos:station:SCCF:18:1,2016-12-01T18:00:00Z,26.6955,-81.8138,1.242,6.21,1111122 
SCCF RECON,ioos:station:SCCF:18:1,2016-12-01T19:00:00Z,26.6955,-81.8138,1.303,6.24,1111122 
SCCF RECON,ioos:station:SCCF:18:1,2016-12-01T20:00:00Z,26.6955,-81.8138,1.373,6.45,1111122 
SCCF RECON,ioos:station:SCCF:18:1,2016-12-01T21:00:00Z,26.6955,-81.8138,1.42,6.28,1111122 
SCCF RECON,ioos:station:SCCF:18:1,2016-12-01T22:00:00Z,26.6955,-81.8138,1.446,6.2,1111122 
SCCF RECON,ioos:station:SCCF:18:1,2016-12-01T23:00:00Z,26.6955,-81.8138,1.468,6.34,1111122 
SCCF RECON,ioos:station:SCCF:18:1,2016-12-02T00:00:00Z,26.6955,-81.8138,1.462,6.31,1111122 
SCCF RECON,ioos:station:SCCF:18:1,2016-12-02T01:00:00Z,26.6955,-81.8138,1.406,6.28,1111122 
SCCF RECON,ioos:station:SCCF:18:1,2016-12-02T02:00:00Z,26.6955,-81.8138,1.355,6.51,1111122 
SCCF RECON,ioos:station:SCCF:18:1,2016-12-02T03:00:00Z,26.6955,-81.8138,1.33,6.17,1111122 
SCCF RECON,ioos:station:SCCF:18:1,2016-12-02T04:00:00Z,26.6955,-81.8138,1.323,6.24,1111122 
SCCF RECON,ioos:station:SCCF:18:1,2016-12-02T05:00:00Z,26.6955,-81.8138,1.357,6.21,1111122 
SCCF RECON,ioos:station:SCCF:18:1,2016-12-02T06:00:00Z,26.6955,-81.8138,1.439,5.95,1111122 
SCCF RECON,ioos:station:SCCF:18:1,2016-12-02T07:00:00Z,26.6955,-81.8138,1.52,5.75,1111122 
SCCF RECON,ioos:station:SCCF:18:1,2016-12-02T08:00:00Z,26.6955,-81.8138,1.562,5.68,1111122 
SCCF RECON,ioos:station:SCCF:18:1,2016-12-02T09:00:00Z,26.6955,-81.8138,1.583,5.74,1111122 
SCCF RECON,ioos:station:SCCF:18:1,2016-12-02T10:00:00Z,26.6955,-81.8138,1.582,5.76,1111122 
SCCF RECON,ioos:station:SCCF:18:1,2016-12-02T11:00:00Z,26.6955,-81.8138,1.522,5.8,1111122 
SCCF RECON,ioos:station:SCCF:18:1,2016-12-02T12:00:00Z,26.6955,-81.8138,1.443,5.5,1111122 
SCCF RECON,ioos:station:SCCF:18:1,2016-12-02T13:00:00Z,26.6955,-81.8138,1.38,5.57,1111122 
SCCF RECON,ioos:station:SCCF:18:1,2016-12-02T14:00:00Z,26.6955,-81.8138,1.341,5.64,1111122 
SCCF RECON,ioos:station:SCCF:18:1,2016-12-02T15:00:00Z,26.6955,-81.8138,1.276,5.61,1111122 
SCCF RECON,ioos:station:SCCF:18:1,2016-12-02T16:00:00Z,26.6955,-81.8138,1.224,5.68,1111122 
SCCF RECON,ioos:station:SCCF:18:1,2016-12-02T17:00:00Z,26.6955,-81.8138,1.164,5.78,1111122 
SCCF RECON,ioos:station:SCCF:18:1,2016-12-02T18:00:00Z,26.6955,-81.8138,1.12,6.11,1111122 
SCCF RECON,ioos:station:SCCF:18:1,2016-12-02T19:00:00Z,26.6955,-81.8138,1.112,6.05,1111122 
SCCF RECON,ioos:station:SCCF:18:1,2016-12-02T20:00:00Z,26.6955,-81.8138,1.144,5.99,1111122 
SCCF RECON,ioos:station:SCCF:18:1,2016-12-02T21:00:00Z,26.6955,-81.8138,1.212,6.04,1111122 
SCCF RECON,ioos:station:SCCF:18:1,2016-12-02T22:00:00Z,26.6955,-81.8138,1.264,6.25,1111122 
SCCF RECON,ioos:station:SCCF:18:1,2016-12-02T23:00:00Z,26.6955,-81.8138,1.294,6.17,1111122 
SCCF RECON,ioos:station:SCCF:18:1,2016-12-03T00:00:00Z,26.6955,-81.8138,1.31,6.2,1111122 
SCCF RECON,ioos:station:SCCF:18:1,2016-12-03T01:00:00Z,26.6955,-81.8138,1.298,6.2,1111122 
SCCF RECON,ioos:station:SCCF:18:1,2016-12-03T02:00:00Z,26.6955,-81.8138,1.262,6.2,1111122 
SCCF RECON,ioos:station:SCCF:18:1,2016-12-03T03:00:00Z,26.6955,-81.8138,1.214,6.02,1111122 
SCCF RECON,ioos:station:SCCF:18:1,2016-12-03T04:00:00Z,26.6955,-81.8138,1.18,5.98,1111122 
SCCF RECON,ioos:station:SCCF:18:1,2016-12-03T05:00:00Z,26.6955,-81.8138,1.177,5.93,1111122 
SCCF RECON,ioos:station:SCCF:18:1,2016-12-03T06:00:00Z,26.6955,-81.8138,1.23,5.96,1111122 
SCCF RECON,ioos:station:SCCF:18:1,2016-12-03T07:00:00Z,26.6955,-81.8138,1.303,5.81,1111122 
SCCF RECON,ioos:station:SCCF:18:1,2016-12-03T08:00:00Z,26.6955,-81.8138,1.355,5.88,1111122 
SCCF RECON,ioos:station:SCCF:18:1,2016-12-03T09:00:00Z,26.6955,-81.8138,1.361,5.83,1111122 
SCCF RECON,ioos:station:SCCF:18:1,2016-12-03T10:00:00Z,26.6955,-81.8138,1.367,5.81,1111122 
SCCF RECON,ioos:station:SCCF:18:1,2016-12-03T11:00:00Z,26.6955,-81.8138,1.347,5.89,1111122 
SCCF RECON,ioos:station:SCCF:18:1,2016-12-03T12:00:00Z,26.6955,-81.8138,1.302,5.81,1111122 
SCCF RECON,ioos:station:SCCF:18:1,2016-12-03T13:00:00Z,26.6955,-81.8138,1.248,5.79,1111122 
SCCF RECON,ioos:station:SCCF:18:1,2016-12-03T14:00:00Z,26.6955,-81.8138,1.2,5.8,1111122 
SCCF RECON,ioos:station:SCCF:18:1,2016-12-03T15:00:00Z,26.6955,-81.8138,1.152,5.81,1111122 
SCCF RECON,ioos:station:SCCF:18:1,2016-12-03T16:00:00Z,26.6955,-81.8138,1.1,5.91,1111122 
SCCF RECON,ioos:station:SCCF:18:1,2016-12-03T17:00:00Z,26.6955,-81.8138,1.047,6.17,1111122 
SCCF RECON,ioos:station:SCCF:18:1,2016-12-03T18:00:00Z,26.6955,-81.8138,1.004,6.29,1111122 
SCCF RECON,ioos:station:SCCF:18:1,2016-12-03T19:00:00Z,26.6955,-81.8138,0.99,6.43,1111122 
SCCF RECON,ioos:station:SCCF:18:1,2016-12-03T20:00:00Z,26.6955,-81.8138,1.03,6.32,1111122 
SCCF RECON,ioos:station:SCCF:18:1,2016-12-03T21:00:00Z,26.6955,-81.8138,1.09,6.68,1111122 
SCCF RECON,ioos:station:SCCF:18:1,2016-12-03T22:00:00Z,26.6955,-81.8138,1.146,6.57,1111122 
SCCF RECON,ioos:station:SCCF:18:1,2016-12-03T23:00:00Z,26.6955,-81.8138,1.203,6.72,1111122 
SCCF RECON,ioos:station:SCCF:18:1,2016-12-04T00:00:00Z,26.6955,-81.8138,1.258,6.6,1111122 
SCCF RECON,ioos:station:SCCF:18:1,2016-12-04T01:00:00Z,26.6955,-81.8138,1.304,6.68,1111122 
SCCF RECON,ioos:station:SCCF:18:1,2016-12-04T02:00:00Z,26.6955,-81.8138,1.309,6.61,1111122 
SCCF RECON,ioos:station:SCCF:18:1,2016-12-04T03:00:00Z,26.6955,-81.8138,1.287,6.46,1111122 
SCCF RECON,ioos:station:SCCF:18:1,2016-12-04T04:00:00Z,26.6955,-81.8138,1.258,6.21,1111122 
SCCF RECON,ioos:station:SCCF:18:1,2016-12-04T05:00:00Z,26.6955,-81.8138,1.24,6.19,1111122 
SCCF RECON,ioos:station:SCCF:18:1,2016-12-04T06:00:00Z,26.6955,-81.8138,1.272,6.15,1111122 
SCCF RECON,ioos:station:SCCF:18:1,2016-12-04T07:00:00Z,26.6955,-81.8138,1.337,6.22,1111122 
SCCF RECON,ioos:station:SCCF:18:1,2016-12-04T08:00:00Z,26.6955,-81.8138,1.403,6.1,1111122 
SCCF RECON,ioos:station:SCCF:18:1,2016-12-04T09:00:00Z,26.6955,-81.8138,1.433,6.14,1111122 
SCCF RECON,ioos:station:SCCF:18:1,2016-12-04T10:00:00Z,26.6955,-81.8138,1.462,6.09,1111122 
SCCF RECON,ioos:station:SCCF:18:1,2016-12-04T11:00:00Z,26.6955,-81.8138,1.486,6.12,1111122 
SCCF RECON,ioos:station:SCCF:18:1,2016-12-04T12:00:00Z,26.6955,-81.8138,1.48,6.01,1111122 
SCCF RECON,ioos:station:SCCF:18:1,2016-12-04T13:00:00Z,26.6955,-81.8138,1.418,6.04,1111122 
SCCF RECON,ioos:station:SCCF:18:1,2016-12-04T14:00:00Z,26.6955,-81.8138,1.359,5.92,1111122 
SCCF RECON,ioos:station:SCCF:18:1,2016-12-04T15:00:00Z,26.6955,-81.8138,1.309,5.97,1111122 
SCCF RECON,ioos:station:SCCF:18:1,2016-12-04T16:00:00Z,26.6955,-81.8138,1.262,6.1,1111122 
SCCF RECON,ioos:station:SCCF:18:1,2016-12-04T17:00:00Z,26.6955,-81.8138,1.21,6.24,1111122 
SCCF RECON,ioos:station:SCCF:18:1,2016-12-04T18:00:00Z,26.6955,-81.8138,1.163,6.29,1111122 
SCCF RECON,ioos:station:SCCF:18:1,2016-12-04T19:00:00Z,26.6955,-81.8138,1.125,6.4,1111122 
SCCF RECON,ioos:station:SCCF:18:1,2016-12-04T20:00:00Z,26.6955,-81.8138,1.164,6.46,1111122 
SCCF RECON,ioos:station:SCCF:18:1,2016-12-04T21:00:00Z,26.6955,-81.8138,1.239,6.26,1111122 
SCCF RECON,ioos:station:SCCF:18:1,2016-12-04T22:00:00Z,26.6955,-81.8138,1.323,6.59,1111122 
SCCF RECON,ioos:station:SCCF:18:1,2016-12-04T23:00:00Z,26.6955,-81.8138,1.372,6.53,1111122 
SCCF RECON,ioos:station:SCCF:18:1,2016-12-05T00:00:00Z,26.6955,-81.8138,1.425,6.45,1111122 
SCCF RECON,ioos:station:SCCF:18:1,2016-12-05T01:00:00Z,26.6955,-81.8138,1.473,6.36,1111122 
SCCF RECON,ioos:station:SCCF:18:1,2016-12-05T02:00:00Z,26.6955,-81.8138,1.5,6.43,1111122 
SCCF RECON,ioos:station:SCCF:18:1,2016-12-05T03:00:00Z,26.6955,-81.8138,1.491,6.32,1111122 
SCCF RECON,ioos:station:SCCF:18:1,2016-12-05T04:00:00Z,26.6955,-81.8138,1.449,6.23,1111122 
SCCF RECON,ioos:station:SCCF:18:1,2016-12-05T05:00:00Z,26.6955,-81.8138,1.419,6.09,1111122 
SCCF RECON,ioos:station:SCCF:18:1,2016-12-05T06:00:00Z,26.6955,-81.8138,1.419,5.98,1111122 
SCCF RECON,ioos:station:SCCF:18:1,2016-12-05T07:00:00Z,26.6955,-81.8138,1.445,5.92,1111122 
SCCF RECON,ioos:station:SCCF:18:1,2016-12-05T08:00:00Z,26.6955,-81.8138,1.492,5.97,1111122 
SCCF RECON,ioos:station:SCCF:18:1,2016-12-05T09:00:00Z,26.6955,-81.8138,1.545,5.92,1111122 
SCCF RECON,ioos:station:SCCF:18:1,2016-12-05T10:00:00Z,26.6955,-81.8138,1.583,5.96,1111122 
SCCF RECON,ioos:station:SCCF:18:1,2016-12-05T11:00:00Z,26.6955,-81.8138,1.604,5.95,1111122 
SCCF RECON,ioos:station:SCCF:18:1,2016-12-05T12:00:00Z,26.6955,-81.8138,1.611,5.92,1111122 
SCCF RECON,ioos:station:SCCF:18:1,2016-12-05T13:00:00Z,26.6955,-81.8138,1.571,5.83,1111122 
SCCF RECON,ioos:station:SCCF:18:1,2016-12-05T14:00:00Z,26.6955,-81.8138,1.498,5.7,1111122 
SCCF RECON,ioos:station:SCCF:18:1,2016-12-05T15:00:00Z,26.6955,-81.8138,1.436,5.76,1111122 
SCCF RECON,ioos:station:SCCF:18:1,2016-12-05T16:00:00Z,26.6955,-81.8138,1.403,5.77,1111122 
SCCF RECON,ioos:station:SCCF:18:1,2016-12-05T17:00:00Z,26.6955,-81.8138,1.352,5.94,1111122 
SCCF RECON,ioos:station:SCCF:18:1,2016-12-05T18:00:00Z,26.6955,-81.8138,1.302,6.08,1111122 
SCCF RECON,ioos:station:SCCF:18:1,2016-12-05T19:00:00Z,26.6955,-81.8138,1.262,6.13,1111122 
SCCF RECON,ioos:station:SCCF:18:1,2016-12-05T20:00:00Z,26.6955,-81.8138,1.251,6.05,1111122 
SCCF RECON,ioos:station:SCCF:18:1,2016-12-05T21:00:00Z,26.6955,-81.8138,1.306,6.2,1111122 
SCCF RECON,ioos:station:SCCF:18:1,2016-12-05T22:00:00Z,26.6955,-81.8138,1.372,6.06,1111122 
SCCF RECON,ioos:station:SCCF:18:1,2016-12-05T23:00:00Z,26.6955,-81.8138,1.428,6.29,1111122 
SCCF RECON,ioos:station:SCCF:18:1,2016-12-06T00:00:00Z,26.6955,-81.8138,1.468,6.26,1111122 
SCCF RECON,ioos:station:SCCF:18:1,2016-12-06T01:00:00Z,26.6955,-81.8138,1.512,6.14,1111122 
SCCF RECON,ioos:station:SCCF:18:1,2016-12-06T02:00:00Z,26.6955,-81.8138,1.561,5.96,1111122 
SCCF RECON,ioos:station:SCCF:18:1,2016-12-06T03:00:00Z,26.6955,-81.8138,1.582,6.05,1111122 
SCCF RECON,ioos:station:SCCF:18:1,2016-12-06T04:00:00Z,26.6955,-81.8138,1.558,6.04,1111122 
SCCF RECON,ioos:station:SCCF:18:1,2016-12-06T05:00:00Z,26.6955,-81.8138,1.507,5.87,1111122 
SCCF RECON,ioos:station:SCCF:18:1,2016-12-06T06:00:00Z,26.6955,-81.8138,1.468,5.87,1111122 
SCCF RECON,ioos:station:SCCF:18:1,2016-12-06T07:00:00Z,26.6955,-81.8138,1.457,5.78,1111122 
SCCF RECON,ioos:station:SCCF:18:1,2016-12-06T08:00:00Z,26.6955,-81.8138,1.475,5.47,1111122 
SCCF RECON,ioos:station:SCCF:18:1,2016-12-06T09:00:00Z,26.6955,-81.8138,1.542,5.77,1111122 
SCCF RECON,ioos:station:SCCF:18:1,2016-12-06T10:00:00Z,26.6955,-81.8138,1.616,5.8,1111122 
SCCF RECON,ioos:station:SCCF:18:1,2016-12-06T11:00:00Z,26.6955,-81.8138,1.673,5.73,1111122 
SCCF RECON,ioos:station:SCCF:18:1,2016-12-06T12:00:00Z,26.6955,-81.8138,1.705,5.6,1111122 
SCCF RECON,ioos:station:SCCF:18:1,2016-12-06T13:00:00Z,26.6955,-81.8138,1.722,5.62,1111122 
SCCF RECON,ioos:station:SCCF:18:1,2016-12-06T14:00:00Z,26.6955,-81.8138,1.71,5.64,1111122 
SCCF RECON,ioos:station:SCCF:18:1,2016-12-06T15:00:00Z,26.6955,-81.8138,1.66,5.74,1111122 
SCCF RECON,ioos:station:SCCF:18:1,2016-12-06T16:00:00Z,26.6955,-81.8138,1.606,5.78,1111122 
SCCF RECON,ioos:station:SCCF:18:1,2016-12-06T17:00:00Z,26.6955,-81.8138,1.553,5.71,1111122 
SCCF RECON,ioos:station:SCCF:18:1,2016-12-06T18:00:00Z,26.6955,-81.8138,1.507,5.57,1111122 
SCCF RECON,ioos:station:SCCF:18:1,2016-12-06T19:00:00Z,26.6955,-81.8138,1.466,5.6,1111122 
SCCF RECON,ioos:station:SCCF:18:1,2016-12-06T20:00:00Z,26.6955,-81.8138,1.413,5.7,1111122 
SCCF RECON,ioos:station:SCCF:18:1,2016-12-06T21:00:00Z,26.6955,-81.8138,1.375,5.79,1111122 
SCCF RECON,ioos:station:SCCF:18:1,2016-12-06T22:00:00Z,26.6955,-81.8138,1.425,5.76,1111122 
SCCF RECON,ioos:station:SCCF:18:1,2016-12-06T23:00:00Z,26.6955,-81.8138,1.48,5.96,1111122 
SCCF RECON,ioos:station:SCCF:18:1,2016-12-07T00:00:00Z,26.6955,-81.8138,1.527,5.62,1111122 
SCCF RECON,ioos:station:SCCF:18:1,2016-12-07T01:00:00Z,26.6955,-81.8138,1.545,5.77,1111122 
SCCF RECON,ioos:station:SCCF:18:1,2016-12-07T02:00:00Z,26.6955,-81.8138,1.56,5.7,1111122 
SCCF RECON,ioos:station:SCCF:18:1,2016-12-07T03:00:00Z,26.6955,-81.8138,1.561,5.72,1111122 
SCCF RECON,ioos:station:SCCF:18:1,2016-12-07T04:00:00Z,26.6955,-81.8138,1.523,5.67,1111122 
SCCF RECON,ioos:station:SCCF:18:1,2016-12-07T05:00:00Z,26.6955,-81.8138,1.461,5.72,1111122 
SCCF RECON,ioos:station:SCCF:18:1,2016-12-07T06:00:00Z,26.6955,-81.8138,1.414,5.68,1111122 
SCCF RECON,ioos:station:SCCF:18:1,2016-12-07T07:00:00Z,26.6955,-81.8138,1.375,5.63,1111122 
SCCF RECON,ioos:station:SCCF:18:1,2016-12-07T08:00:00Z,26.6955,-81.8138,1.332,5.53,1111122 
SCCF RECON,ioos:station:SCCF:18:1,2016-12-07T09:00:00Z,26.6955,-81.8138,1.297,5.37,1111122 
SCCF RECON,ioos:station:SCCF:18:1,2016-12-07T10:00:00Z,26.6955,-81.8138,1.307,5.29,1111122 
SCCF RECON,ioos:station:SCCF:18:1,2016-12-07T11:00:00Z,26.6955,-81.8138,1.383,5.36,1111122 
SCCF RECON,ioos:station:SCCF:18:1,2016-12-07T12:00:00Z,26.6955,-81.8138,1.463,5.16,1111122 
SCCF RECON,ioos:station:SCCF:18:1,2016-12-07T13:00:00Z,26.6955,-81.8138,1.49,5.13,1111122 
SCCF RECON,ioos:station:SCCF:18:1,2016-12-07T14:00:00Z,26.6955,-81.8138,1.493,5.29,1111122 
SCCF RECON,ioos:station:SCCF:18:1,2016-12-07T15:00:00Z,26.6955,-81.8138,1.473,5.43,1111122 
SCCF RECON,ioos:station:SCCF:18:1,2016-12-07T16:00:00Z,26.6955,-81.8138,1.41,5.41,1111122 
SCCF RECON,ioos:station:SCCF:18:1,2016-12-07T17:00:00Z,26.6955,-81.8138,1.342,5.36,1111122 
SCCF RECON,ioos:station:SCCF:18:1,2016-12-07T18:00:00Z,26.6955,-81.8138,1.29,5.29,1111122 
SCCF RECON,ioos:station:SCCF:18:1,2016-12-07T19:00:00Z,26.6955,-81.8138,1.259,5.26,1111122 
SCCF RECON,ioos:station:SCCF:18:1,2016-12-07T20:00:00Z,26.6955,-81.8138,1.218,5.37,1111122 
SCCF RECON,ioos:station:SCCF:18:1,2016-12-07T21:00:00Z,26.6955,-81.8138,1.181,5.48,1111122 
SCCF RECON,ioos:station:SCCF:18:1,2016-12-07T22:00:00Z,26.6955,-81.8138,1.196,5.51,1111122 
SCCF RECON,ioos:station:SCCF:18:1,2016-12-07T23:00:00Z,26.6955,-81.8138,1.268,5.5,1111122 
SCCF RECON,ioos:station:SCCF:18:1,2016-12-08T00:00:00Z,26.6955,-81.8138,1.339,5.29,1111122 
SCCF RECON,ioos:station:SCCF:18:1,2016-12-08T01:00:00Z,26.6955,-81.8138,1.4,5.27,1111122 
SCCF RECON,ioos:station:SCCF:18:1,2016-12-08T02:00:00Z,26.6955,-81.8138,1.441,5.38,1111122 
SCCF RECON,ioos:station:SCCF:18:1,2016-12-08T03:00:00Z,26.6955,-81.8138,1.482,5.32,1111122 
SCCF RECON,ioos:station:SCCF:18:1,2016-12-08T04:00:00Z,26.6955,-81.8138,1.505,5.24,1111122 
SCCF RECON,ioos:station:SCCF:18:1,2016-12-08T05:00:00Z,26.6955,-81.8138,1.487,5.37,1111122 
SCCF RECON,ioos:station:SCCF:18:1,2016-12-08T06:00:00Z,26.6955,-81.8138,1.407,5.41,1111122 
SCCF RECON,ioos:station:SCCF:18:1,2016-12-08T07:00:00Z,26.6955,-81.8138,1.335,5.06,1111122 
SCCF RECON,ioos:station:SCCF:18:1,2016-12-08T08:00:00Z,26.6955,-81.8138,1.292,5.04,1111122 
SCCF RECON,ioos:station:SCCF:18:1,2016-12-08T09:00:00Z,26.6955,-81.8138,1.26,5.11,1111122 
SCCF RECON,ioos:station:SCCF:18:1,2016-12-08T10:00:00Z,26.6955,-81.8138,1.23,5.12,1111122 
SCCF RECON,ioos:station:SCCF:18:1,2016-12-08T11:00:00Z,26.6955,-81.8138,1.213,5.13,1111122 
SCCF RECON,ioos:station:SCCF:18:1,2016-12-08T12:00:00Z,26.6955,-81.8138,1.257,5.2,1111122 
SCCF RECON,ioos:station:SCCF:18:1,2016-12-08T13:00:00Z,26.6955,-81.8138,1.333,5.06,1111122 
SCCF RECON,ioos:station:SCCF:18:1,2016-12-08T14:00:00Z,26.6955,-81.8138,1.4,4.95,1111122 
SCCF RECON,ioos:station:SCCF:18:1,2016-12-08T15:00:00Z,26.6955,-81.8138,1.42,5.05,1111122 
SCCF RECON,ioos:station:SCCF:18:1,2016-12-08T16:00:00Z,26.6955,-81.8138,1.403,5.21,1111122 
SCCF RECON,ioos:station:SCCF:18:1,2016-12-08T17:00:00Z,26.6955,-81.8138,1.363,5.2,1111122 
SCCF RECON,ioos:station:SCCF:18:1,2016-12-08T18:00:00Z,26.6955,-81.8138,1.303,5.21,1111122 
SCCF RECON,ioos:station:SCCF:18:1,2016-12-08T19:00:00Z,26.6955,-81.8138,1.257,5.29,1111122 
SCCF RECON,ioos:station:SCCF:18:1,2016-12-08T20:00:00Z,26.6955,-81.8138,1.222,5.32,1111122 
SCCF RECON,ioos:station:SCCF:18:1,2016-12-08T21:00:00Z,26.6955,-81.8138,1.198,5.41,1111122 
SCCF RECON,ioos:station:SCCF:18:1,2016-12-08T22:00:00Z,26.6955,-81.8138,1.163,5.5,1111122 
SCCF RECON,ioos:station:SCCF:18:1,2016-12-08T23:00:00Z,26.6955,-81.8138,1.142,5.31,1111122 
SCCF RECON,ioos:station:SCCF:18:1,2016-12-09T00:00:00Z,26.6955,-81.8138,1.187,5.28,1111122 
SCCF RECON,ioos:station:SCCF:18:1,2016-12-09T01:00:00Z,26.6955,-81.8138,1.263,5.12,1111122 
SCCF RECON,ioos:station:SCCF:18:1,2016-12-09T02:00:00Z,26.6955,-81.8138,1.336,5.19,1111122 
SCCF RECON,ioos:station:SCCF:18:1,2016-12-09T03:00:00Z,26.6955,-81.8138,1.379,5.03,1111122 
SCCF RECON,ioos:station:SCCF:18:1,2016-12-09T04:00:00Z,26.6955,-81.8138,1.424,5.05,1111122 
SCCF RECON,ioos:station:SCCF:18:1,2016-12-09T05:00:00Z,26.6955,-81.8138,1.465,4.97,1111122 
SCCF RECON,ioos:station:SCCF:18:1,2016-12-09T06:00:00Z,26.6955,-81.8138,1.432,5.18,1111122 
SCCF RECON,ioos:station:SCCF:18:1,2016-12-09T07:00:00Z,26.6955,-81.8138,1.342,5.19,1111122 
SCCF RECON,ioos:station:SCCF:18:1,2016-12-09T08:00:00Z,26.6955,-81.8138,1.285,5.13,1111122 
SCCF RECON,ioos:station:SCCF:18:1,2016-12-09T09:00:00Z,26.6955,-81.8138,1.257,5.06,1111122 
SCCF RECON,ioos:station:SCCF:18:1,2016-12-09T10:00:00Z,26.6955,-81.8138,1.195,5.22,1111122 
SCCF RECON,ioos:station:SCCF:18:1,2016-12-09T11:00:00Z,26.6955,-81.8138,1.161,5.11,1111122 
SCCF RECON,ioos:station:SCCF:18:1,2016-12-09T12:00:00Z,26.6955,-81.8138,1.142,5.23,1111122 
SCCF RECON,ioos:station:SCCF:18:1,2016-12-09T13:00:00Z,26.6955,-81.8138,1.127,5.3,1111122 
SCCF RECON,ioos:station:SCCF:18:1,2016-12-09T14:00:00Z,26.6955,-81.8138,1.158,5.43,1111122 
SCCF RECON,ioos:station:SCCF:18:1,2016-12-09T15:00:00Z,26.6955,-81.8138,1.2,5.37,1111122 
SCCF RECON,ioos:station:SCCF:18:1,2016-12-09T16:00:00Z,26.6955,-81.8138,1.225,5.59,1111122 
SCCF RECON,ioos:station:SCCF:18:1,2016-12-09T17:00:00Z,26.6955,-81.8138,1.236,5.61,1111122 
SCCF RECON,ioos:station:SCCF:18:1,2016-12-09T18:00:00Z,26.6955,-81.8138,1.214,5.87,1111122 
SCCF RECON,ioos:station:SCCF:18:1,2016-12-09T19:00:00Z,26.6955,-81.8138,1.179,5.78,1111122 
SCCF RECON,ioos:station:SCCF:18:1,2016-12-09T20:00:00Z,26.6955,-81.8138,1.138,5.63,1111122 
SCCF RECON,ioos:station:SCCF:18:1,2016-12-09T21:00:00Z,26.6955,-81.8138,1.101,5.69,1111122 
SCCF RECON,ioos:station:SCCF:18:1,2016-12-09T22:00:00Z,26.6955,-81.8138,1.074,5.72,1111122 
SCCF RECON,ioos:station:SCCF:18:1,2016-12-09T23:00:00Z,26.6955,-81.8138,1.061,5.89,1111122 
SCCF RECON,ioos:station:SCCF:18:1,2016-12-10T00:00:00Z,26.6955,-81.8138,1.089,5.81,1111122 
SCCF RECON,ioos:station:SCCF:18:1,2016-12-10T01:00:00Z,26.6955,-81.8138,1.165,5.73,1111122 
SCCF RECON,ioos:station:SCCF:18:1,2016-12-10T02:00:00Z,26.6955,-81.8138,1.236,5.63,1111122 
SCCF RECON,ioos:station:SCCF:18:1,2016-12-10T03:00:00Z,26.6955,-81.8138,1.282,5.7,1111122 
SCCF RECON,ioos:station:SCCF:18:1,2016-12-10T04:00:00Z,26.6955,-81.8138,1.309,5.71,1111122 
SCCF RECON,ioos:station:SCCF:18:1,2016-12-10T05:00:00Z,26.6955,-81.8138,1.343,5.75,1111122 
SCCF RECON,ioos:station:SCCF:18:1,2016-12-10T06:00:00Z,26.6955,-81.8138,1.346,5.8,1111122 
SCCF RECON,ioos:station:SCCF:18:1,2016-12-10T07:00:00Z,26.6955,-81.8138,1.293,5.92,1111122 
SCCF RECON,ioos:station:SCCF:18:1,2016-12-10T08:00:00Z,26.6955,-81.8138,1.234,5.82,1111122 
SCCF RECON,ioos:station:SCCF:18:1,2016-12-10T09:00:00Z,26.6955,-81.8138,1.186,5.97,1111122 
SCCF RECON,ioos:station:SCCF:18:1,2016-12-10T10:00:00Z,26.6955,-81.8138,1.153,6.17,1111122 
SCCF RECON,ioos:station:SCCF:18:1,2016-12-10T11:00:00Z,26.6955,-81.8138,1.115,6.59,1111122 
SCCF RECON,ioos:station:SCCF:18:1,2016-12-10T12:00:00Z,26.6955,-81.8138,1.079,7.13,1111122 
SCCF RECON,ioos:station:SCCF:18:1,2016-12-10T13:00:00Z,26.6955,-81.8138,1.054,8.45,1111122 
SCCF RECON,ioos:station:SCCF:18:1,2016-12-10T14:00:00Z,26.6955,-81.8138,1.065,8.14,1111122 
SCCF RECON,ioos:station:SCCF:18:1,2016-12-10T15:00:00Z,26.6955,-81.8138,1.118,8.11,1111122 
SCCF RECON,ioos:station:SCCF:18:1,2016-12-10T16:00:00Z,26.6955,-81.8138,1.172,8.47,1111122 
SCCF RECON,ioos:station:SCCF:18:1,2016-12-10T17:00:00Z,26.6955,-81.8138,1.217,8.53,1111122 
SCCF RECON,ioos:station:SCCF:18:1,2016-12-10T18:00:00Z,26.6955,-81.8138,1.224,8.81,1111122 
SCCF RECON,ioos:station:SCCF:18:1,2016-12-10T19:00:00Z,26.6955,-81.8138,1.213,9.96,1111122 
SCCF RECON,ioos:station:SCCF:18:1,2016-12-10T20:00:00Z,26.6955,-81.8138,1.204,11.23,1111122 
SCCF RECON,ioos:station:SCCF:18:1,2016-12-10T21:00:00Z,26.6955,-81.8138,1.169,11.03,1111122 
SCCF RECON,ioos:station:SCCF:18:1,2016-12-10T22:00:00Z,26.6955,-81.8138,1.14,10.98,1111122 
SCCF RECON,ioos:station:SCCF:18:1,2016-12-10T23:00:00Z,26.6955,-81.8138,1.11,10.97,1111122 
SCCF RECON,ioos:station:SCCF:18:1,2016-12-11T00:00:00Z,26.6955,-81.8138,1.11,10.98,1111122 
SCCF RECON,ioos:station:SCCF:18:1,2016-12-11T01:00:00Z,26.6955,-81.8138,1.153,10.78,1111122 
SCCF RECON,ioos:station:SCCF:18:1,2016-12-11T02:00:00Z,26.6955,-81.8138,1.234,11.22,1111122 
SCCF RECON,ioos:station:SCCF:18:1,2016-12-11T03:00:00Z,26.6955,-81.8138,1.313,11.31,1111122 
SCCF RECON,ioos:station:SCCF:18:1,2016-12-11T04:00:00Z,26.6955,-81.8138,1.369,11.39,1111122 
SCCF RECON,ioos:station:SCCF:18:1,2016-12-11T05:00:00Z,26.6955,-81.8138,1.423,11.46,1111122 
SCCF RECON,ioos:station:SCCF:18:1,2016-12-11T06:00:00Z,26.6955,-81.8138,1.475,11.47,1111122 
SCCF RECON,ioos:station:SCCF:18:1,2016-12-11T07:00:00Z,26.6955,-81.8138,1.478,11.16,1111122 
SCCF RECON,ioos:station:SCCF:18:1,2016-12-11T08:00:00Z,26.6955,-81.8138,1.409,10.69,1111122 
SCCF RECON,ioos:station:SCCF:18:1,2016-12-11T09:00:00Z,26.6955,-81.8138,1.325,11.28,1111122 
SCCF RECON,ioos:station:SCCF:18:1,2016-12-11T10:00:00Z,26.6955,-81.8138,1.271,11.33,1111122 
SCCF RECON,ioos:station:SCCF:18:1,2016-12-11T11:00:00Z,26.6955,-81.8138,1.24,11.3,1111122 
SCCF RECON,ioos:station:SCCF:18:1,2016-12-11T12:00:00Z,26.6955,-81.8138,1.196,11.17,1111122 
SCCF RECON,ioos:station:SCCF:18:1,2016-12-11T13:00:00Z,26.6955,-81.8138,1.147,11.19,1111122 
SCCF RECON,ioos:station:SCCF:18:1,2016-12-11T14:00:00Z,26.6955,-81.8138,1.134,11.14,1111122 
SCCF RECON,ioos:station:SCCF:18:1,2016-12-11T15:00:00Z,26.6955,-81.8138,1.186,11.22,1111122 
SCCF RECON,ioos:station:SCCF:18:1,2016-12-11T16:00:00Z,26.6955,-81.8138,1.246,11.2,1111122 
SCCF RECON,ioos:station:SCCF:18:1,2016-12-11T17:00:00Z,26.6955,-81.8138,1.285,11.3,1111122 
SCCF RECON,ioos:station:SCCF:18:1,2016-12-11T18:00:00Z,26.6955,-81.8138,1.332,11.22,1111122 
SCCF RECON,ioos:station:SCCF:18:1,2016-12-11T19:00:00Z,26.6955,-81.8138,1.386,11.21,1111122 